[[{"header":{"parameterUnit":"m.s-1","parameterCategory":1,"la1":30.2991,"la2":30.254,"lo1":-89.0895,"lo2":-89.0444,"dy":0.0017,"dx":0.0017,"nx":28,"ny":28,"refTime":"2023-09-16T03:00:00:Z","depth":0,"parameterNumber":2,"parameterNumberName":"U-component_of_WINDS"},"data":[0,0,0,0,0,0,0,0,0,0,0,0,0,0,0,0,0,0,0,0,0,0,0,0,0,0,0,0,0,0,0,0,0,0,0,0,0,0,0,0,0,0,0,0,0,0,0,0,0,0,0,0,0,0,0,0,0,0,1.8185,1.8185,0,1.8187,1.8187,1.8187,1.8168,1.8168,1.8167,1.8167,1.8168,1.8169,1.8169,0,0,0,0,0,0,0,0,0,0,0,0,0,1.8165,1.8166,1.8185,1.8185,1.8185,1.8187,1.8187,1.8187,1.8169,1.8168,1.8167,1.8167,1.8168,1.8169,1.8169,0,0,0,0,0,0,0,0,0,0,0,0,0,1.8171,1.8166,1.8185,1.8176,1.8175,1.8187,1.8187,1.8187,1.8169,1.8168,1.8167,1.8166,1.8168,1.8169,1.8169,1.8189,0,0,1.8172,1.8172,0,0,0,0,0,0,0,0,1.8171,1.8172,1.8177,1.8177,1.8176,1.8177,1.818,1.8188,1.8169,1.8171,1.8167,1.8166,1.8172,1.8172,1.8174,1.8189,1.8189,1.8172,1.8172,1.8173,1.8173,0,0,0,0,0,0,0,1.817,1.8172,1.8186,1.8178,1.8177,1.8172,1.8172,1.8182,1.8176,1.8171,1.817,1.817,1.8171,1.8173,1.8174,1.8189,1.8172,1.8172,1.8173,1.8173,1.8221,1.8221,0,0,0,0,0,0,1.8171,1.8172,1.8186,1.8186,1.8172,1.8173,1.8173,1.8177,1.8175,1.8174,1.8171,1.8169,1.8172,1.8173,1.8174,1.8197,1.8173,1.8173,1.8174,1.822,1.8221,1.8222,0,0,0,0,0,0,1.8171,1.8173,1.8185,1.8178,1.818,1.8174,1.8179,1.8178,1.818,1.8175,1.8174,1.8174,1.8172,1.8173,1.8185,1.8196,1.8174,1.8174,1.8219,1.822,1.8221,1.8243,0,0,0,0,0,0,1.8171,1.8173,1.818,1.8179,1.818,1.8197,1.818,1.8178,1.8181,1.8179,1.8178,1.8177,1.8171,1.8184,1.8186,1.8197,1.8175,1.8218,1.8219,1.8221,1.8241,1.8244,1.8247,0,0,0,0,0,1.817,1.8186,1.8181,1.8183,1.8189,1.8198,1.8199,1.8192,1.8182,1.819,1.8187,1.8177,1.8195,1.8186,1.8188,1.8199,1.8217,1.8219,1.8221,1.8239,1.8244,1.8247,0,0,0,0,0,0,1.8189,1.8186,1.818,1.8196,1.8197,1.8195,1.8204,1.8196,1.82,1.8198,1.8189,1.8189,1.8203,1.8202,1.8192,1.8218,1.8204,1.8207,1.8218,1.8222,1.8225,1.8225,1.8175,0,0,0,0,0,1.8195,1.8203,1.8199,1.8214,1.8215,1.8209,1.8213,1.8207,1.8208,1.8209,1.8207,1.8208,1.8214,1.8218,1.8223,1.8241,1.824,1.8249,1.8253,1.8255,1.8257,1.8266,1.827,1.8228,1.8228,1.8228,0,0,1.8208,1.8207,1.8212,1.8218,1.8218,1.8226,1.821,1.8219,1.8224,1.821,1.8222,1.8221,1.8221,1.8237,1.8243,1.8236,1.8269,1.8258,1.826,1.826,1.8269,1.8273,1.8276,1.8229,1.8229,1.8228,0,0,1.8235,1.8235,1.8247,1.8248,1.8249,1.8245,1.8248,1.8247,1.8245,1.8257,1.8247,1.8253,1.8264,1.8264,1.8266,1.8294,1.8285,1.8296,1.8313,1.8322,1.8325,1.8328,1.8338,1.8341,1.8298,1.8298,1.8298,0,1.825,1.8261,1.8254,1.8264,1.8266,1.8254,1.8266,1.8268,1.827,1.8272,1.8265,1.8277,1.8277,1.8292,1.8299,1.8301,1.8304,1.8296,1.8325,1.8328,1.8331,1.834,1.8344,1.8299,1.8299,1.8299,1.8299,0,1.828,1.8288,1.8298,1.8301,1.8305,1.8316,1.831,1.8315,1.8309,1.8306,1.8318,1.8318,1.8322,1.8326,1.832,1.834,1.8336,1.8327,1.8313,1.8336,1.8345,1.8348,1.8301,1.8301,1.83,1.83,0,0,1.8319,1.8318,1.8322,1.8323,1.8323,1.8329,1.834,1.8344,1.8349,1.8351,1.8359,1.8368,1.836,1.8362,1.8357,1.8365,1.8387,1.8355,1.8355,1.8361,1.8408,1.8415,1.8419,1.8381,1.8382,1.8382,1.8408,0,1.8345,1.8362,1.8356,1.8374,1.8381,1.837,1.8379,1.838,1.8378,1.8384,1.8381,1.8387,1.8376,1.8378,1.8385,1.8382,1.8396,1.838,1.8388,1.8389,1.8388,1.8423,1.843,1.8454,1.8411,1.8412,1.8412,0,1.8377,1.8381,1.84,1.8399,1.8402,1.841,1.8414,1.842,1.8421,1.8419,1.8421,1.8414,1.8424,1.8411,1.8424,1.8414,1.8417,1.8416,1.8417,1.8417,1.8402,1.8424,1.8462,1.8466,1.8417,1.8417,1.8417,0,1.8403,1.8413,1.8425,1.8427,1.8426,1.8432,1.8432,1.8433,1.8436,1.844,1.8442,1.8446,1.8449,1.8452,1.8447,1.8438,1.8461,1.8447,1.8459,1.8459,1.8464,1.8464,1.8503,1.8467,1.8467,1.8467,1.8467,0,1.8432,1.8444,1.8437,1.8445,1.8457,1.845,1.8463,1.8462,1.8463,1.847,1.846,1.8467,1.8459,1.8465,1.8461,1.8473,1.8474,1.8472,1.8471,1.8473,1.8473,1.8474,1.8472,1.8468,1.8467,1.8467,1.8467,0,1.8463,1.8459,1.8471,1.847,1.847,1.848,1.8478,1.8485,1.8483,1.8492,1.8493,1.8489,1.8495,1.849,1.8497,1.8494,1.8509,1.8506,1.8509,1.8508,1.852,1.8518,1.8561,1.8566,1.8527,1.8527,1.8528,0,1.8482,1.8491,1.849,1.8494,1.8495,1.8502,1.8506,1.8499,1.8503,1.8505,1.8512,1.8518,1.8522,1.8533,1.853,1.8535,1.8531,1.8546,1.8532,1.8534,1.8531,1.853,1.8531,1.8548,1.8549,1.8549,1.855,0,1.8515,1.8513,1.8518,1.8523,1.8528,1.8531,1.8534,1.8538,1.8531,1.8536,1.8543,1.8546,1.8553,1.8559,1.8563,1.8563,1.8555,1.8554,1.8557,1.8559,1.856,1.8559,1.8516,1.8553,1.8553,1.8552,1.8552,1.8552,1.854,1.8548,1.8549,1.8555,1.8556,1.8559,1.8566,1.8564,1.8569,1.8574,1.857,1.8578,1.8579,1.8584,1.8585,1.8591,1.8585,1.8589,1.859,1.8592,1.8593,1.856,1.8592,1.8592,1.8592,1.8592,1.8592,0,1.8573,1.8573,1.8579,1.8583,1.8588,1.8581,1.8584,1.8589,1.8596,1.8598,1.8602,1.861,1.8616,1.8614,1.8619,1.8624,1.8621,1.8626,1.8625,1.8625,1.8598,1.8595,1.8628,1.8628,1.8628,1.8628,1.8628,1.8628,1.8591,1.8603,1.86,1.8613,1.8613,1.8621,1.8623,1.8626,1.8627,1.8636,1.8641,1.864,1.864,1.8645,1.865,1.8649,1.8651,1.8657,1.8655,1.863,1.8627,1.8623,1.862,1.8658,1.8658,1.8681,1.8681,1.8681]},{"header":{"parameterUnit":"m.s-1","parameterCategory":1,"la1":30.2991,"la2":30.254,"lo1":-89.0895,"lo2":-89.0444,"dy":0.0017,"dx":0.0017,"nx":28,"ny":28,"refTime":"2023-09-16T03:00:00:Z","depth":0,"parameterNumber":3,"parameterNumberName":"V-component_of_WINDS"},"data":[0,0,0,0,0,0,0,0,0,0,0,0,0,0,0,0,0,0,0,0,0,0,0,0,0,0,0,0,0,0,0,0,0,0,0,0,0,0,0,0,0,0,0,0,0,0,0,0,0,0,0,0,0,0,0,0,0,0,0.542,0.542,0,0.5423,0.5423,0.5423,0.5421,0.5421,0.542,0.542,0.5424,0.5424,0.5424,0,0,0,0,0,0,0,0,0,0,0,0,0,0.5412,0.5412,0.542,0.542,0.542,0.5423,0.5423,0.5423,0.5421,0.5421,0.542,0.542,0.5424,0.5424,0.5424,0,0,0,0,0,0,0,0,0,0,0,0,0,0.5415,0.5412,0.542,0.5419,0.5419,0.5423,0.5423,0.5423,0.5421,0.5421,0.542,0.542,0.5424,0.5424,0.5424,0.5429,0,0,0.5425,0.5425,0,0,0,0,0,0,0,0,0.5415,0.5415,0.5419,0.5419,0.5419,0.5421,0.5421,0.5425,0.5421,0.542,0.542,0.542,0.5423,0.5423,0.5424,0.5429,0.5429,0.5425,0.5425,0.5425,0.5425,0,0,0,0,0,0,0,0.5415,0.5415,0.5421,0.5419,0.5419,0.5419,0.5419,0.5422,0.5422,0.542,0.542,0.542,0.5423,0.5424,0.5424,0.5429,0.5425,0.5425,0.5425,0.5425,0.5438,0.5438,0,0,0,0,0,0,0.5414,0.5415,0.5421,0.5421,0.5417,0.5419,0.5419,0.5421,0.5422,0.5422,0.5421,0.542,0.5424,0.5424,0.5424,0.543,0.5425,0.5425,0.5426,0.5437,0.5438,0.5438,0,0,0,0,0,0,0.5414,0.5415,0.5421,0.5418,0.5419,0.5419,0.5421,0.5421,0.5422,0.5423,0.5423,0.5422,0.5423,0.5424,0.5428,0.543,0.5426,0.5426,0.5437,0.5437,0.5438,0.5441,0,0,0,0,0,0,0.5414,0.5415,0.5417,0.5418,0.5419,0.5424,0.5421,0.5421,0.5422,0.5422,0.5424,0.5424,0.5423,0.5427,0.5428,0.543,0.5426,0.5437,0.5437,0.5438,0.5441,0.5441,0.5442,0,0,0,0,0,0.5414,0.5418,0.5417,0.5418,0.5421,0.5424,0.5425,0.5424,0.5423,0.5424,0.5425,0.5424,0.543,0.5428,0.5428,0.5431,0.5437,0.5437,0.5438,0.544,0.5441,0.5442,0,0,0,0,0,0,0.5417,0.5418,0.5417,0.5421,0.5423,0.5424,0.5426,0.5425,0.5427,0.5427,0.5426,0.5427,0.543,0.5431,0.5429,0.5435,0.5433,0.5433,0.5435,0.5435,0.5436,0.5436,0.5426,0,0,0,0,0,0.5418,0.542,0.5421,0.5425,0.5426,0.5426,0.5427,0.5427,0.5428,0.5429,0.5429,0.5431,0.5433,0.5434,0.5436,0.5441,0.5441,0.5443,0.5443,0.5444,0.5444,0.5446,0.5447,0.5439,0.5439,0.5439,0,0,0.542,0.5421,0.5423,0.5425,0.5426,0.5429,0.5426,0.5429,0.5431,0.5429,0.5432,0.5433,0.5434,0.5438,0.544,0.5439,0.5446,0.5444,0.5444,0.5445,0.5447,0.5447,0.5448,0.5439,0.5439,0.5439,0,0,0.5426,0.5427,0.543,0.5431,0.5432,0.5432,0.5433,0.5434,0.5435,0.5438,0.5437,0.5439,0.5443,0.5444,0.5445,0.545,0.5449,0.5451,0.5454,0.5456,0.5457,0.5457,0.5459,0.546,0.5451,0.5451,0.5451,0,0.5429,0.5432,0.5432,0.5434,0.5436,0.5434,0.5437,0.5438,0.544,0.5441,0.544,0.5444,0.5445,0.5449,0.545,0.5451,0.5452,0.5451,0.5457,0.5457,0.5458,0.5459,0.546,0.5452,0.5452,0.5452,0.5452,0,0.5435,0.5438,0.544,0.5442,0.5444,0.5446,0.5446,0.5448,0.5447,0.5447,0.5451,0.5452,0.5454,0.5455,0.5454,0.5459,0.5458,0.5457,0.5454,0.5459,0.546,0.5461,0.5452,0.5452,0.5452,0.5452,0,0,0.5443,0.5444,0.5445,0.5446,0.5447,0.5449,0.5452,0.5454,0.5455,0.5457,0.5459,0.5462,0.5461,0.5462,0.5461,0.5463,0.5467,0.5462,0.5462,0.5462,0.5472,0.5473,0.5473,0.5467,0.5467,0.5467,0.5472,0,0.5448,0.5453,0.5453,0.5457,0.5459,0.5458,0.546,0.5461,0.5461,0.5463,0.5463,0.5465,0.5464,0.5464,0.5466,0.5466,0.5469,0.5466,0.5468,0.5468,0.5468,0.5474,0.5475,0.548,0.5472,0.5472,0.5472,0,0.5455,0.5457,0.5461,0.5462,0.5463,0.5465,0.5467,0.5469,0.547,0.547,0.5471,0.547,0.5473,0.547,0.5474,0.5472,0.5473,0.5473,0.5473,0.5473,0.5471,0.5474,0.5481,0.5482,0.5473,0.5473,0.5473,0,0.546,0.5463,0.5466,0.5467,0.5468,0.547,0.547,0.5471,0.5472,0.5474,0.5474,0.5476,0.5477,0.5478,0.5478,0.5476,0.5481,0.5479,0.5481,0.5481,0.5482,0.5482,0.5489,0.5483,0.5483,0.5483,0.5483,0,0.5466,0.5469,0.5468,0.547,0.5473,0.5473,0.5476,0.5476,0.5477,0.5479,0.5478,0.548,0.5479,0.5481,0.5481,0.5483,0.5484,0.5484,0.5484,0.5484,0.5484,0.5484,0.5484,0.5484,0.5483,0.5483,0.5483,0,0.5471,0.5471,0.5475,0.5475,0.5476,0.5478,0.5478,0.548,0.548,0.5483,0.5483,0.5483,0.5485,0.5485,0.5487,0.5487,0.549,0.549,0.549,0.549,0.5492,0.5492,0.55,0.5501,0.5494,0.5494,0.5494,0,0.5475,0.5477,0.5478,0.5479,0.548,0.5482,0.5483,0.5483,0.5484,0.5485,0.5487,0.5488,0.549,0.5493,0.5493,0.5495,0.5494,0.5497,0.5495,0.5495,0.5494,0.5494,0.5494,0.5497,0.5497,0.5497,0.5498,0,0.5482,0.5481,0.5483,0.5485,0.5486,0.5487,0.5488,0.5489,0.5489,0.549,0.5492,0.5493,0.5496,0.5497,0.5499,0.5499,0.5498,0.5498,0.5499,0.5499,0.5499,0.5499,0.5491,0.5498,0.5498,0.5498,0.5498,0.5498,0.5486,0.5488,0.5489,0.5491,0.5491,0.5492,0.5494,0.5494,0.5496,0.5498,0.5497,0.5499,0.55,0.5502,0.5503,0.5504,0.5503,0.5504,0.5504,0.5505,0.5505,0.5499,0.5505,0.5505,0.5505,0.5505,0.5505,0,0.5492,0.5493,0.5495,0.5496,0.5497,0.5496,0.5498,0.5499,0.5501,0.5502,0.5503,0.5505,0.5507,0.5507,0.5509,0.551,0.5509,0.551,0.551,0.551,0.5506,0.5505,0.5511,0.5511,0.5511,0.5511,0.5511,0.5511,0.5496,0.5499,0.5498,0.5502,0.5502,0.5504,0.5505,0.5506,0.5506,0.5509,0.551,0.551,0.5511,0.5513,0.5514,0.5514,0.5515,0.5516,0.5516,0.5511,0.5511,0.551,0.5509,0.5516,0.5516,0.552,0.552,0.552]}]]